ANA994 ROAH-RJTT

Flight info

Callsign ANA994
Flight time N/A
Altitude 41000
Route AMAMI Y574 SHIBK Y57 SUKBO Y571 BILLY Y21 AKSEL
Aircraft B789/H-SDE1E2E3FGHIJ2J3J4J5M1RWXY/LB1D1

Departure

Time N/A
Airport Naha International Airport (ROAH)

Arrival

Time 2026-02-18 07:16
Airport Tokyo Haneda International Airport (RJTT)
Time Latitude Longitude Altitude Speed Heading
2026-02-18 06:52 34.08193 138.66316 37904 ft 619 kts 58°
2026-02-18 06:52 34.10214 138.70884 36861 ft 605 kts 58°
2026-02-18 06:52 34.12132 138.75258 35713 ft 592 kts 58°
2026-02-18 06:52 34.14039 138.79599 34681 ft 579 kts 58°
2026-02-18 06:53 34.15909 138.83841 33597 ft 566 kts 58°
2026-02-18 06:53 34.17726 138.87973 32584 ft 549 kts 58°
2026-02-18 06:53 34.19482 138.91983 31609 ft 531 kts 58°
2026-02-18 06:53 34.21182 138.95870 30642 ft 515 kts 58°
2026-02-18 06:54 34.22833 138.99638 29675 ft 499 kts 58°
2026-02-18 06:54 34.24429 139.03286 28523 ft 484 kts 58°
2026-02-18 06:54 34.25976 139.06831 27413 ft 470 kts 58°
2026-02-18 06:55 34.28842 139.13619 25861 ft 444 kts 65°
2026-02-18 06:55 34.30028 139.17047 25445 ft 440 kts 64°
2026-02-18 06:55 34.31197 139.20447 25013 ft 436 kts 64°
2026-02-18 06:55 34.32357 139.23817 24583 ft 432 kts 64°
2026-02-18 06:56 34.33511 139.27156 24150 ft 428 kts 64°
2026-02-18 06:56 34.34657 139.30468 23725 ft 425 kts 64°
2026-02-18 06:56 34.35787 139.33755 23268 ft 421 kts 64°
2026-02-18 06:56 34.36902 139.37006 22817 ft 415 kts 64°
2026-02-18 06:57 34.37989 139.40172 22396 ft 410 kts 64°
2026-02-18 06:57 34.39077 139.43333 21984 ft 404 kts 64°
2026-02-18 06:57 34.40145 139.46450 21574 ft 399 kts 64°
2026-02-18 06:57 34.41207 139.49549 21175 ft 398 kts 64°
2026-02-18 06:58 34.42266 139.52644 20776 ft 397 kts 64°
2026-02-18 06:58 34.43320 139.55726 20363 ft 394 kts 64°
2026-02-18 06:58 34.44358 139.58771 19976 ft 389 kts 64°
2026-02-18 06:59 34.46410 139.64783 19199 ft 386 kts 65°
2026-02-18 06:59 34.47418 139.67742 18826 ft 384 kts 65°
2026-02-18 06:59 34.48577 139.70603 18435 ft 372 kts 49°
2026-02-18 06:59 34.50323 139.72840 18072 ft 361 kts 30°
2026-02-18 07:00 34.52413 139.74464 17658 ft 357 kts 25°
2026-02-18 07:00 34.54542 139.76035 17293 ft 359 kts 24°
2026-02-18 07:00 34.56663 139.77575 16908 ft 352 kts 24°
2026-02-18 07:00 34.58757 139.79109 16538 ft 352 kts 25°
2026-02-18 07:01 34.60856 139.80656 16165 ft 353 kts 25°
2026-02-18 07:01 34.62923 139.82181 15797 ft 350 kts 25°
2026-02-18 07:01 34.64990 139.83705 15423 ft 346 kts 25°
2026-02-18 07:01 34.67066 139.85186 15056 ft 344 kts 19°
2026-02-18 07:02 34.69310 139.85964 14710 ft 331 kts
2026-02-18 07:02 34.71578 139.86327 14326 ft 325 kts 358°
2026-02-18 07:02 34.73810 139.86614 13982 ft 322 kts 358°
2026-02-18 07:03 34.78272 139.87225 13396 ft 324 kts 359°
2026-02-18 07:03 34.80490 139.87550 13034 ft 317 kts 359°
2026-02-18 07:03 34.82668 139.87860 12676 ft 315 kts 359°
2026-02-18 07:03 34.84820 139.88157 12317 ft 315 kts 359°
2026-02-18 07:04 34.86993 139.88465 11957 ft 312 kts 359°
2026-02-18 07:04 34.89125 139.88772 11603 ft 307 kts 359°
2026-02-18 07:04 34.91250 139.89072 11248 ft 308 kts 359°
2026-02-18 07:04 34.93372 139.89371 10892 ft 305 kts 358°
2026-02-18 07:05 34.95412 139.89285 10625 ft 286 kts 340°
2026-02-18 07:05 34.97347 139.88714 10521 ft 289 kts 339°
2026-02-18 07:05 34.99290 139.88099 10216 ft 285 kts 338°
2026-02-18 07:05 35.01180 139.87493 9917 ft 276 kts 338°
2026-02-18 07:06 35.02988 139.86921 9625 ft 268 kts 338°
2026-02-18 07:06 35.04761 139.86364 9334 ft 259 kts 338°
2026-02-18 07:06 35.06482 139.85820 9063 ft 254 kts 338°
2026-02-18 07:07 35.09931 139.84722 8530 ft 253 kts 339°
2026-02-18 07:07 35.11631 139.84187 8277 ft 254 kts 339°
2026-02-18 07:07 35.13360 139.83637 8003 ft 257 kts 340°
2026-02-18 07:07 35.15067 139.83098 7738 ft 253 kts 340°
2026-02-18 07:08 35.16781 139.82555 7470 ft 255 kts 340°
2026-02-18 07:08 35.18498 139.82010 7200 ft 255 kts 340°
2026-02-18 07:08 35.20173 139.81480 6926 ft 248 kts 341°
2026-02-18 07:08 35.21798 139.80968 6768 ft 238 kts 340°
2026-02-18 07:09 35.23402 139.80455 6490 ft 239 kts 341°
2026-02-18 07:09 35.25003 139.79945 6172 ft 237 kts 341°
2026-02-18 07:09 35.26596 139.79440 5837 ft 236 kts 341°
2026-02-18 07:09 35.28173 139.78939 5528 ft 231 kts 341°
2026-02-18 07:10 35.29698 139.78452 5221 ft 222 kts 343°
2026-02-18 07:10 35.31185 139.78093 4916 ft 217 kts 357°
2026-02-18 07:10 35.32602 139.78602 4623 ft 217 kts 27°
2026-02-18 07:11 35.35118 139.80557 4077 ft 208 kts 31°
2026-02-18 07:11 35.36314 139.81496 3810 ft 201 kts 31°
2026-02-18 07:11 35.37476 139.82394 3549 ft 195 kts 31°
2026-02-18 07:11 35.38606 139.83268 3292 ft 190 kts 31°
2026-02-18 07:12 35.39719 139.84130 3046 ft 188 kts 31°
2026-02-18 07:12 35.40830 139.84960 2796 ft 184 kts 26°
2026-02-18 07:12 35.42050 139.85127 2548 ft 174 kts 353°
2026-02-18 07:12 35.43257 139.85092 2327 ft 177 kts
2026-02-18 07:13 35.44472 139.85029 2088 ft 175 kts 342°
2026-02-18 07:13 35.45467 139.84234 1889 ft 168 kts 323°
2026-02-18 07:13 35.46529 139.83633 1664 ft 168 kts 333°
2026-02-18 07:13 35.47502 139.82932 1443 ft 154 kts 329°
2026-02-18 07:14 35.48415 139.82295 1232 ft 149 kts 329°
2026-02-18 07:14 35.49310 139.81654 1021 ft 148 kts 328°
2026-02-18 07:14 35.50201 139.81015 810 ft 150 kts 330°
2026-02-18 07:15 35.51993 139.79743 426 ft 148 kts 329°
2026-02-18 07:15 35.52882 139.79109 250 ft 148 kts 331°
2026-02-18 07:15 35.53773 139.78482 47 ft 145 kts 331°
2026-02-18 07:15 35.54599 139.77899 30 ft 135 kts 329°
2026-02-18 07:16 35.55414 139.77316 31 ft 113 kts 329°
2026-02-18 07:16 35.55786 139.77062 30 ft 32 kts 330°
2026-02-18 07:16 35.55976 139.76929 30 ft 27 kts 330°
2026-02-18 07:16 35.56068 139.76883 30 ft 9 kts
2026-02-18 07:17 35.56128 139.76924 29 ft 11 kts 34°
2026-02-18 07:17 35.56197 139.76982 28 ft 9 kts 39°
2026-02-18 07:17 35.56209 139.77045 28 ft 8 kts 100°
2026-02-18 07:17 35.56195 139.77122 29 ft 10 kts 103°
2026-02-18 07:18 35.56175 139.77202 30 ft 10 kts 118°
2026-02-18 07:18 35.56135 139.77281 29 ft 13 kts 120°
2026-02-18 07:18 35.56072 139.77371 28 ft 13 kts 147°
2026-02-18 07:19 35.56020 139.77484 29 ft 7 kts 62°
2026-02-18 07:19 35.56048 139.77545 29 ft 10 kts 59°
2026-02-18 07:19 35.56087 139.77625 29 ft 12 kts 59°
2026-02-18 07:19 35.56133 139.77723 29 ft 14 kts 59°
2026-02-18 07:20 35.56187 139.77837 27 ft 17 kts 59°
2026-02-18 07:20 35.56249 139.77965 27 ft 18 kts 59°
2026-02-18 07:20 35.56316 139.78108 28 ft 20 kts 60°
2026-02-18 07:20 35.56390 139.78264 28 ft 22 kts 59°
2026-02-18 07:21 35.56424 139.78373 28 ft 9 kts 104°
2026-02-18 07:21 35.56382 139.78419 28 ft 9 kts 149°
2026-02-18 07:21 35.56326 139.78459 29 ft 10 kts 150°
2026-02-18 07:21 35.56252 139.78510 29 ft 14 kts 150°
2026-02-18 07:22 35.56156 139.78578 29 ft 18 kts 149°
2026-02-18 07:22 35.56041 139.78662 29 ft 21 kts 149°
2026-02-18 07:22 35.55907 139.78758 29 ft 24 kts 150°
2026-02-18 07:23 35.55590 139.78982 29 ft 29 kts 149°
2026-02-18 07:23 35.55491 139.79044 29 ft 10 kts 170°
2026-02-18 07:23 35.55391 139.78933 29 ft 11 kts 204°
2026-02-18 07:24 35.55321 139.78947 29 ft 10 kts 169°
2026-02-18 07:24 35.55295 139.78930 29 ft 2 kts 240°
2026-02-18 07:24 35.55284 139.78907 29 ft 4 kts 240°
2026-02-18 07:24 35.55274 139.78885 29 ft 1 kts 240°
2026-02-18 07:25 35.55271 139.78880 29 ft 0 kts 240°